Le nostre stazioni meteo in Italia

Pubblicità
Il mio iltempo24.it
Pantelleria, Italia (16470): Temperatura & dewpoint: 10.12.2017 17:00:00 - 16.12.2017 17:00:00 (CET)Pantelleria, Italia (16470): velocità del vento: 10.12.2017 17:00:00 - 16.12.2017 17:00:00 (CET)Pantelleria, Italia (16470): direzione del vento: 10.12.2017 17:00:00 - 16.12.2017 17:00:00 (CET)Pantelleria, Italia (16470): reduced air pressure: 10.12.2017 17:00:00 - 16.12.2017 17:00:00 (CET)Pantelleria, Italia (16470): visibility: 10.12.2017 17:00:00 - 16.12.2017 17:00:00 (CET)Pantelleria, Italia (16470): ore di luce: 10.12.2017 17:00:00 - 16.12.2017 17:00:00 (CET)
Data & Tempo tt [°C] td [°C] ff [km/h] ff [kn] dd ppp [hPa] vv [km] sd [min]
16.12.2017 17:00:00 9,4 7,0 13 7 NNO 1011,9 7 0
16.12.2017 16:00:00 10,0 7,8 26 14 NNO 1011,6 7 0
16.12.2017 15:00:00 12,8 10,5 18 10 N 1010,6 10 0
16.12.2017 14:00:00 12,8 10,5 9 5 N 1010,5 10 0
16.12.2017 13:00:00 13,0 10,5 8 4 NNO 1010,6 10 0
16.12.2017 12:00:00 13,2 10,9 4 2 N 1010,5 10 0
16.12.2017 11:00:00 13,0 10,7 5 3 NNE 1010,6 10 0
16.12.2017 10:00:00 12,8 10,5 0 0 N 1010,4 10 0
16.12.2017 09:00:00 12,4 10,1 0 0 N 1009,6 10 0
16.12.2017 08:00:00 13,8 11,5 0 0 N 1009,5 10 0
16.12.2017 07:00:00 13,6 11,3 8 4 NO 1009,5 10 0
16.12.2017 06:00:00 - - - - - - - -
16.12.2017 05:00:00 - - - - - - - -
16.12.2017 04:00:00 - - - - - - - -
16.12.2017 03:00:00 - - - - - - - -
16.12.2017 02:00:00 - - - - - - - -
16.12.2017 01:00:00 - - - - - - - -
16.12.2017 00:00:00 - - - - - - - -
15.12.2017 23:00:00 - - - - - - - -
15.12.2017 22:00:00 - - - - - - - -
15.12.2017 21:00:00 - - - - - - - -
15.12.2017 20:00:00 - - - - - - - -
15.12.2017 19:00:00 15,4 13,1 22 12 S 1009,1 12 0
15.12.2017 18:00:00 15,0 12,9 22 12 S 1009,2 12 6
15.12.2017 17:00:00 15,2 12,5 21 11 S 1009,5 18 60
15.12.2017 16:00:00 15,0 12,7 28 15 S 1009,7 20 60
15.12.2017 15:00:00 15,4 12,9 29 16 SSO 1010,0 20 60
15.12.2017 14:00:00 15,4 12,9 29 16 S 1011,1 20 60
15.12.2017 13:00:00 15,6 12,9 24 13 SSO 1012,1 20 60
15.12.2017 12:00:00 16,0 13,3 26 14 SSO 1013,1 20 60
15.12.2017 11:00:00 15,6 13,1 29 16 SSO 1014,0 20 60
15.12.2017 10:00:00 15,6 13,1 24 13 S 1014,4 20 36
15.12.2017 09:00:00 14,8 12,3 21 11 S 1014,4 15 42
15.12.2017 08:00:00 13,0 10,5 21 11 S 1014,6 15 0
15.12.2017 07:00:00 12,4 10,1 18 10 SSE 1014,6 10 0
15.12.2017 06:00:00 - - - - - - - -
15.12.2017 05:00:00 - - - - - - - -
15.12.2017 04:00:00 - - - - - - - -
15.12.2017 03:00:00 - - - - - - - -
15.12.2017 02:00:00 - - - - - - - -
15.12.2017 01:00:00 - - - - - - - -
15.12.2017 00:00:00 - - - - - - - -
14.12.2017 23:00:00 - - - - - - - -
14.12.2017 22:00:00 - - - - - - - -
14.12.2017 21:00:00 - - - - - - - -
14.12.2017 20:00:00 - - - - - - - -
14.12.2017 19:00:00 12,6 10,5 11 6 SO 1020,4 20 0
14.12.2017 18:00:00 13,0 10,9 15 8 SO 1020,6 20 0
14.12.2017 17:00:00 13,8 11,7 16 9 SO 1020,7 15 18
14.12.2017 16:00:00 14,2 11,9 22 12 SO 1020,8 20 42
14.12.2017 15:00:00 14,2 12,1 28 15 SO 1021,3 18 54
14.12.2017 14:00:00 14,0 11,9 29 16 SO 1021,7 20 60
14.12.2017 13:00:00 14,4 10,8 24 13 OSO 1021,9 30 60
14.12.2017 12:00:00 14,0 11,2 22 12 OSO 1023,0 30 54
14.12.2017 11:00:00 13,0 10,2 21 11 OSO 1023,8 20 36
14.12.2017 10:00:00 12,6 10,0 18 10 O 1024,3 20 36
14.12.2017 09:00:00 12,6 10,0 18 10 OSO 1024,0 18 0
14.12.2017 08:00:00 11,8 9,7 15 8 OSO 1023,9 15 0
14.12.2017 07:00:00 11,4 9,3 15 8 O 1024,0 12 0
14.12.2017 06:00:00 - - - - - - - -
14.12.2017 05:00:00 - - - - - - - -
14.12.2017 04:00:00 - - - - - - - -
14.12.2017 03:00:00 - - - - - - - -
14.12.2017 02:00:00 - - - - - - - -
14.12.2017 01:00:00 - - - - - - - -
14.12.2017 00:00:00 - - - - - - - -
13.12.2017 23:00:00 - - - - - - - -
13.12.2017 22:00:00 - - - - - - - -
13.12.2017 21:00:00 - - - - - - - -
13.12.2017 20:00:00 - - - - - - - -
13.12.2017 19:00:00 14,0 11,7 22 12 NO 1023,9 10 0
13.12.2017 18:00:00 14,0 11,7 21 11 ONO 1023,7 10 0
13.12.2017 17:00:00 14,2 11,9 21 11 ONO 1023,3 15 0
13.12.2017 16:00:00 15,0 12,7 21 11 ONO 1022,9 15 0
13.12.2017 15:00:00 15,2 12,9 16 9 NO 1022,7 15 0
13.12.2017 14:00:00 15,8 13,5 16 9 NO 1022,6 10 42
13.12.2017 13:00:00 15,2 12,9 16 9 NO 1023,2 10 30
13.12.2017 12:00:00 15,6 13,3 11 6 NNO 1023,6 10 60
13.12.2017 11:00:00 15,4 13,1 13 7 NNO 1023,7 9 54
13.12.2017 10:00:00 15,2 12,9 15 8 NNO 1023,7 8 18
13.12.2017 09:00:00 14,8 12,5 11 6 NNO 1022,6 8 6
13.12.2017 08:00:00 14,2 12,1 8 4 NO 1022,4 7 0
13.12.2017 07:00:00 14,2 12,1 13 7 O 1021,7 10 0
13.12.2017 06:00:00 - - - - - - - -
13.12.2017 05:00:00 - - - - - - - -
13.12.2017 04:00:00 - - - - - - - -
13.12.2017 03:00:00 - - - - - - - -
13.12.2017 02:00:00 - - - - - - - -
13.12.2017 01:00:00 - - - - - - - -
13.12.2017 00:00:00 - - - - - - - -
12.12.2017 23:00:00 - - - - - - - -
12.12.2017 22:00:00 - - - - - - - -
12.12.2017 21:00:00 - - - - - - - -
12.12.2017 20:00:00 - - - - - - - -
12.12.2017 19:00:00 14,8 13,5 37 20 S 1018,0 11 0
12.12.2017 18:00:00 15,0 13,9 41 22 N 1017,3 12 12
12.12.2017 17:00:00 15,4 13,9 37 20 S 1016,9 18 60
12.12.2017 16:00:00 16,6 12,0 29 16 S 1016,8 18 60
12.12.2017 15:00:00 17,0 13,1 34 18 S 1016,3 20 60
12.12.2017 14:00:00 17,2 13,1 37 20 S 1016,3 20 60
12.12.2017 13:00:00 17,0 14,5 29 16 S 1017,3 20 60
12.12.2017 12:00:00 17,4 14,1 29 16 S 1017,3 20 60
12.12.2017 11:00:00 17,4 13,7 34 18 S 1017,3 20 60
12.12.2017 10:00:00 16,6 14,1 35 19 S 1017,0 15 60
12.12.2017 09:00:00 15,8 13,3 29 16 S 1016,4 15 48
12.12.2017 08:00:00 15,2 13,0 34 18 SSO 1015,4 15 0
12.12.2017 07:00:00 15,0 12,7 37 20 SSO 1014,5 15 0
12.12.2017 06:00:00 - - - - - - - -
12.12.2017 05:00:00 - - - - - - - -
12.12.2017 04:00:00 - - - - - - - -
12.12.2017 03:00:00 - - - - - - - -
12.12.2017 02:00:00 - - - - - - - -
12.12.2017 01:00:00 - - - - - - - -
12.12.2017 00:00:00 - - - - - - - -
11.12.2017 23:00:00 - - - - - - - -
11.12.2017 22:00:00 - - - - - - - -
11.12.2017 21:00:00 - - - - - - - -
11.12.2017 20:00:00 - - - - - - - -
11.12.2017 19:00:00 14,2 12,4 41 22 S 1012,7 10 0
11.12.2017 18:00:00 14,0 12,4 42 23 S 1012,5 10 0
11.12.2017 17:00:00 14,2 12,6 42 23 S 1012,0 10 30
11.12.2017 16:00:00 15,0 13,9 48 26 S 1011,7 10 60
11.12.2017 15:00:00 15,0 13,5 50 27 S 1011,4 15 60
11.12.2017 14:00:00 15,4 13,1 50 27 S 1011,4 15 60
11.12.2017 13:00:00 15,4 13,1 52 28 O 1013,2 15 60
11.12.2017 12:00:00 15,4 12,0 52 28 S 1013,4 15 60
11.12.2017 11:00:00 15,2 12,9 50 27 S 1014,5 15 48
11.12.2017 10:00:00 15,2 13,0 48 26 S 1014,6 15 48
11.12.2017 09:00:00 14,8 12,5 50 27 S 1014,7 18 0
11.12.2017 08:00:00 13,8 11,1 52 28 S 1014,5 15 0
11.12.2017 07:00:00 13,8 10,6 50 27 S 1014,6 12 0
11.12.2017 06:00:00 - - - - - - - -
11.12.2017 05:00:00 - - - - - - - -
11.12.2017 04:00:00 - - - - - - - -
11.12.2017 03:00:00 - - - - - - - -
11.12.2017 02:00:00 - - - - - - - -
11.12.2017 01:00:00 - - - - - - - -
11.12.2017 00:00:00 - - - - - - - -
10.12.2017 23:00:00 - - - - - - - -
10.12.2017 22:00:00 - - - - - - - -
10.12.2017 21:00:00 - - - - - - - -
10.12.2017 20:00:00 - - - - - - - -
10.12.2017 19:00:00 11,0 9,3 15 8 S 1019,9 15 0
10.12.2017 18:00:00 11,0 9,4 13 7 S 1019,9 15 0
10.12.2017 17:00:00 11,0 9,6 13 7 S 1020,0 20 6

tt = Temperatura
td = dewpoint
ff = velocità del vento
dd = direzione del vento
ppp = reduced air pressure
vv = visibility
sd = ore di luce

Stazioni seguenti

WeatherPro
AMSI
MeteoEarth